Weather History for Austin Bergstrom, TX

Change the Weather History Date:

Thursday, April 3, 2014

  Actual Average Record
Temperature  
Mean Temperature 76 °F 64 °F  
Max Temperature 83 °F 77 °F 89 °F (1989)
Min Temperature 68 °F 51 °F 35 °F (1987)
Degree Days  
Heating Degree Days 0 4  
Month to date heating degree days 0 12  
Since 1 July heating degree days 2097 1849  
Cooling Degree Days 11 3  
Month to date cooling degree days 35 9  
Year to date cooling degree days 84 67  
Growing Degree Days 26 (Base 50)    
Moisture  
Dew Point 68 °F    
Average Humidity 79    
Maximum Humidity 100    
Minimum Humidity 58    
Precipitation  
Precipitation 0.00 in 0.06 in 0.45 in (2013)
Month to date precipitation T 0.20  
Year to date precipitation 2.28 7.31  
Snow  
Snow 0.00 in - - ()
Month to date snowfall 0.0  
Since 1 July snowfall T  
Snow Depth 0.00 in    
Sea Level Pressure  
Sea Level Pressure 29.73 in    
Wind  
Wind Speed 12 mph (South)    
Max Wind Speed 24 mph    
Max Gust Speed 30 mph    
Visibility 7 miles    
Events      
T = Trace of Precipitation, MM = Missing Value Source: NWS Daily Summary

Daily Weather History Graph

Daily Weather History Graph

Search for Another Location

Airport:

Trip Planner

Search our weather history database for the weather conditions in past years. The results will help you decide how hot, cold, wet, or windy it might be!

Date:

Astronomy

Apr. 03, 2014 Rise Set
Actual Time 7:17 AM CDT 7:50 PM CDT
Civil Twilight 6:53 AM CDT 8:14 PM CDT
Nautical Twilight 6:24 AM CDT 8:43 PM CDT
Astronomical Twilight 5:56 AM CDT 9:12 PM CDT
Moon 10:01 AM CDT (4/3) 11:56 PM CDT (4/3)
Length of Visible Light 13h 21m
Length of Day
12h 33m
Waxing Crescent, 17% of the Moon is Illuminated
Apr 3
Waxing Crescent
Apr 7
First Quarter
Apr 15
Full
Apr 22
Last Quarter
Apr 29
New

Hourly Weather History & Observations

Time (CDT) Temp. Heat Index Dew Point Humidity Pressure Visibility Wind Dir Wind Speed Gust Speed Precip Events Conditions
12:53 AM 73.9 °F - 69.1 °F 85% 29.73 in 7.0 mi South 10.4 mph - N/A   Overcast
1:53 AM 73.9 °F - 69.1 °F 85% 29.73 in 7.0 mi South 11.5 mph - N/A   Overcast
2:53 AM 73.0 °F - 69.1 °F 87% 29.73 in 8.0 mi South 11.5 mph - N/A   Overcast
3:34 AM 73.0 °F - 68.0 °F 84% 29.75 in 8.0 mi South 11.5 mph - N/A   Overcast
3:53 AM 73.0 °F - 68.0 °F 84% 29.72 in 8.0 mi South 12.7 mph - N/A   Overcast
4:53 AM 72.0 °F - 68.0 °F 87% 29.72 in 7.0 mi South 11.5 mph - N/A   Mostly Cloudy
5:53 AM 72.0 °F - 68.0 °F 87% 29.73 in 7.0 mi South 13.8 mph - N/A   Mostly Cloudy
6:53 AM 72.0 °F - 68.0 °F 87% 29.75 in 6.0 mi South 9.2 mph - N/A   Overcast
7:16 AM 71.1 °F - 66.9 °F 87% 29.77 in 6.0 mi South 12.7 mph - N/A   Overcast
7:53 AM 71.1 °F - 66.9 °F 87% 29.75 in 5.0 mi SSE 10.4 mph - N/A   Overcast
8:05 AM 71.1 °F - 66.9 °F 87% 29.78 in 4.0 mi SSE 11.5 mph - N/A   Overcast
8:53 AM 72.0 °F - 66.9 °F 84% 29.76 in 5.0 mi South 15.0 mph - N/A   Haze
9:53 AM 73.9 °F - 66.9 °F 79% 29.76 in 6.0 mi South 16.1 mph 24.2 mph N/A   Haze
10:53 AM 75.0 °F - 66.0 °F 73% 29.76 in 8.0 mi South 18.4 mph - N/A   Overcast
11:53 AM 78.1 °F - 66.9 °F 68% 29.75 in 9.0 mi South 17.3 mph 26.5 mph N/A   Overcast
12:23 PM 78.1 °F - 66.0 °F 66% 29.78 in 9.0 mi South 17.3 mph 24.2 mph N/A   Overcast
12:53 PM 78.1 °F - 66.0 °F 66% 29.75 in 9.0 mi South 11.5 mph 24.2 mph N/A   Overcast
1:53 PM 80.1 °F 82.3 °F 66.9 °F 64% 29.73 in 9.0 mi South 16.1 mph - N/A   Overcast
2:53 PM 82.0 °F 84.5 °F 66.9 °F 60% 29.71 in 9.0 mi South 16.1 mph 23.0 mph N/A   Overcast
3:53 PM 81.0 °F 83.3 °F 66.9 °F 62% 29.69 in 8.0 mi South 11.5 mph - N/A   Overcast
4:53 PM 80.1 °F 82.7 °F 68.0 °F 67% 29.65 in 8.0 mi SSE 12.7 mph - N/A   Overcast
5:53 PM 82.0 °F 85.5 °F 69.1 °F 65% 29.65 in 7.0 mi SSE 16.1 mph - N/A   Mostly Cloudy
6:53 PM 80.1 °F 82.9 °F 69.1 °F 69% 29.66 in 8.0 mi SSE 12.7 mph - N/A   Scattered Clouds
7:53 PM 75.9 °F - 69.1 °F 79% 29.68 in 7.0 mi SSE 9.2 mph - N/A   Mostly Cloudy
8:53 PM 73.0 °F - 69.1 °F 87% 29.75 in 7.0 mi South 3.5 mph - N/A   Mostly Cloudy
10:53 PM 71.1 °F - 68.0 °F 90% 29.76 in 5.0 mi South 3.5 mph - N/A   Partly Cloudy
11:53 PM 70.0 °F - 69.1 °F 97% 29.80 in 5.0 mi SW 5.8 mph - N/A   Scattered Clouds